When you browse on this site, cookies collect data to enhance your experience and personalize the content and advertising you see.
Visit our Privacy Policy to learn more. By continuing to use the site, you agree to this use of cookies and data.

Hourly Weather Villa Carlos Paz

Today, 6 July, Monday

Time Temperature Precipitation Wind Pressure Humidity
00:00 +5°C° 0 mm 1 mps 702 mmHg 73%
01:00 +5°C° 0 mm 1 mps 702 mmHg 72%
02:00 +5°C° 0 mm 1 mps 702 mmHg 71%
03:00 +5°C° 0 mm 1 mps 702 mmHg 72%
04:00 +4°C° 0 mm 1 mps 702 mmHg 74%
05:00 +3°C° 0 mm 0 mps 702 mmHg 75%
06:00 +3°C° 0 mm 0 mps 702 mmHg 75%
07:00 +3°C° 0 mm 0 mps 702 mmHg 75%
08:00 +3°C° 0 mm 0 mps 702 mmHg 76%
09:00 +6°C° 0 mm 1 mps 703 mmHg 67%
10:00 +7°C° 0 mm 1 mps 703 mmHg 58%
11:00 +8°C° 0 mm 2 mps 703 mmHg 50%
12:00 +9°C° 0 mm 2 mps 702 mmHg 47%
13:00 +9°C° 0 mm 2 mps 702 mmHg 44%
14:00 +10°C° 0 mm 3 mps 701 mmHg 42%
15:00 +9°C° 0 mm 2 mps 701 mmHg 44%
16:00 +9°C° 0 mm 2 mps 700 mmHg 46%
17:00 +8°C° 0 mm 2 mps 700 mmHg 48%
18:00 +7°C° 0 mm 2 mps 700 mmHg 53%
19:00 +7°C° 0 mm 1 mps 701 mmHg 57%
20:00 +5°C° 0 mm 1 mps 701 mmHg 62%
21:00 +5°C° 0 mm 1 mps 701 mmHg 62%
22:00 +5°C° 0 mm 1 mps 701 mmHg 63%
23:00 +5°C° 0 mm 1 mps 702 mmHg 64%

Tomorrow, 7 July, Tuesday

Time Temperature Precipitation Wind Pressure Humidity
00:00 +5°C° 0 mm 1 mps 701 mmHg 65%
01:00 +5°C° 0 mm 1 mps 701 mmHg 66%
02:00 +5°C° 0 mm 1 mps 701 mmHg 67%
03:00 +5°C° 0 mm 1 mps 701 mmHg 68%
04:00 +4°C° 0 mm 1 mps 701 mmHg 70%
05:00 +3°C° 0 mm 0 mps 701 mmHg 72%
06:00 +4°C° 0 mm 1 mps 701 mmHg 71%
07:00 +5°C° 0 mm 1 mps 701 mmHg 70%
08:00 +5°C° 0 mm 1 mps 701 mmHg 69%
09:00 +6°C° 0 mm 1 mps 702 mmHg 66%
10:00 +7°C° 0 mm 1 mps 702 mmHg 62%
11:00 +8°C° 0 mm 1 mps 702 mmHg 59%
12:00 +8°C° 0 mm 1 mps 702 mmHg 58%
13:00 +8°C° 0 mm 2 mps 702 mmHg 57%
14:00 +8°C° 0 mm 2 mps 701 mmHg 56%
15:00 +9°C° 0 mm 1 mps 701 mmHg 58%
16:00 +9°C° 0 mm 1 mps 701 mmHg 60%
17:00 +8°C° 0 mm 1 mps 701 mmHg 62%
18:00 +7°C° 0 mm 1 mps 701 mmHg 67%
19:00 +6°C° 0 mm 1 mps 701 mmHg 71%
20:00 +5°C° 0 mm 1 mps 702 mmHg 76%
21:00 +5°C° 0 mm 1 mps 702 mmHg 78%
22:00 +4°C° 0 mm 1 mps 702 mmHg 79%
23:00 +4°C° 0 mm 1 mps 702 mmHg 80%

Day after tomorrow, 8 July, Wednesday

Time Temperature Precipitation Wind Pressure Humidity
00:00 +4°C° 0 mm 1 mps 702 mmHg 79%
01:00 +4°C° 0 mm 1 mps 702 mmHg 78%
02:00 +4°C° 0 mm 1 mps 701 mmHg 77%
03:00 +4°C° 0 mm 1 mps 701 mmHg 75%
04:00 +4°C° 0 mm 1 mps 701 mmHg 72%
05:00 +4°C° 0 mm 1 mps 701 mmHg 70%
06:00 +5°C° 0 mm 1 mps 701 mmHg 68%
07:00 +5°C° 0 mm 1 mps 702 mmHg 66%
08:00 +5°C° 0 mm 1 mps 702 mmHg 64%
09:00 +7°C° 0 mm 1 mps 702 mmHg 57%
10:00 +8°C° 0 mm 2 mps 702 mmHg 49%
11:00 +10°C° 0 mm 2 mps 703 mmHg 42%
12:00 +12°C° 0 mm 2 mps 702 mmHg 41%
13:00 +13°C° 0 mm 2 mps 702 mmHg 39%
14:00 +14°C° 0 mm 2 mps 701 mmHg 37%
15:00 +13°C° 0 mm 2 mps 701 mmHg 42%
16:00 +12°C° 0 mm 2 mps 701 mmHg 46%
17:00 +11°C° 0 mm 1 mps 701 mmHg 51%
18:00 +10°C° 0 mm 1 mps 701 mmHg 57%
19:00 +8°C° 0 mm 1 mps 701 mmHg 63%
20:00 +7°C° 0 mm 1 mps 702 mmHg 69%
21:00 +7°C° 0 mm 1 mps 702 mmHg 69%
22:00 +5°C° 0 mm 0 mps 702 mmHg 70%
23:00 +5°C° 0 mm 0 mps 702 mmHg 70%

9 July, Thursday

Time Temperature Precipitation Wind Pressure Humidity
00:00 +5°C° 0 mm 0 mps 702 mmHg 69%
01:00 +4°C° 0 mm 0 mps 702 mmHg 68%
02:00 +5°C° 0 mm 1 mps 702 mmHg 68%
03:00 +5°C° 0 mm 1 mps 702 mmHg 68%
04:00 +5°C° 0 mm 1 mps 702 mmHg 68%
05:00 +5°C° 0 mm 1 mps 702 mmHg 68%
06:00 +5°C° 0 mm 1 mps 702 mmHg 67%
07:00 +5°C° 0 mm 1 mps 702 mmHg 67%
08:00 +6°C° 0 mm 1 mps 702 mmHg 66%
09:00 +7°C° 0 mm 2 mps 702 mmHg 58%
10:00 +9°C° 0 mm 2 mps 703 mmHg 50%
11:00 +12°C° 0 mm 3 mps 703 mmHg 43%
12:00 +12°C° 0 mm 4 mps 702 mmHg 41%
13:00 +13°C° 0 mm 4 mps 701 mmHg 38%
14:00 +14°C° 0 mm 5 mps 701 mmHg 36%
15:00 +13°C° 0 mm 4 mps 700 mmHg 41%
16:00 +12°C° 0 mm 4 mps 699 mmHg 45%
17:00 +11°C° 0 mm 3 mps 699 mmHg 50%
18:00 +10°C° 0 mm 3 mps 699 mmHg 55%
19:00 +9°C° 0 mm 3 mps 699 mmHg 60%
20:00 +8°C° 0 mm 3 mps 699 mmHg 65%
21:00 +7°C° 0 mm 4 mps 699 mmHg 67%
22:00 +7°C° 0 mm 4 mps 699 mmHg 68%
23:00 +6°C° 0 mm 4 mps 698 mmHg 70%

10 July, Friday

Time Temperature Precipitation Wind Pressure Humidity
00:00 +7°C° 0 mm 3 mps 698 mmHg 70%
01:00 +7°C° 0 mm 3 mps 698 mmHg 71%
02:00 +7°C° 0 mm 2 mps 698 mmHg 71%
03:00 +7°C° 0 mm 2 mps 698 mmHg 71%
04:00 +7°C° 0 mm 2 mps 698 mmHg 71%
05:00 +7°C° 0 mm 1 mps 697 mmHg 71%
06:00 +8°C° 0 mm 1 mps 698 mmHg 68%
07:00 +8°C° 0 mm 1 mps 699 mmHg 65%
08:00 +9°C° 0 mm 1 mps 700 mmHg 62%
09:00 +10°C° 0 mm 2 mps 700 mmHg 55%
10:00 +13°C° 0 mm 2 mps 700 mmHg 48%
11:00 +14°C° 0 mm 3 mps 701 mmHg 41%
12:00 +15°C° 0 mm 2 mps 700 mmHg 40%
13:00 +16°C° 0 mm 2 mps 699 mmHg 39%
14:00 +17°C° 0 mm 2 mps 699 mmHg 39%
15:00 +16°C° 0 mm 2 mps 698 mmHg 42%
16:00 +15°C° 0 mm 2 mps 698 mmHg 46%
17:00 +14°C° 0 mm 1 mps 698 mmHg 49%
18:00 +13°C° 0 mm 1 mps 698 mmHg 53%
19:00 +12°C° 0 mm 1 mps 698 mmHg 57%
20:00 +11°C° 0 mm 1 mps 698 mmHg 61%
21:00 +10°C° 0 mm 1 mps 698 mmHg 65%
22:00 +10°C° 0 mm 1 mps 698 mmHg 69%
23:00 +10°C° 0 mm 1 mps 698 mmHg 73%

11 July, Saturday

Time Temperature Precipitation Wind Pressure Humidity
00:00 +9°C° 0 mm 1 mps 697 mmHg 74%
01:00 +8°C° 0 mm 2 mps 697 mmHg 75%
02:00 +8°C° 0 mm 2 mps 696 mmHg 76%
03:00 +8°C° 0 mm 2 mps 696 mmHg 74%
04:00 +9°C° 0 mm 1 mps 696 mmHg 73%
05:00 +9°C° 0 mm 1 mps 695 mmHg 72%
06:00 +10°C° 0 mm 1 mps 695 mmHg 67%
07:00 +10°C° 0 mm 1 mps 696 mmHg 62%
08:00 +11°C° 0 mm 1 mps 696 mmHg 57%
09:00 +13°C° 0 mm 1 mps 696 mmHg 53%
10:00 +15°C° 0 mm 1 mps 696 mmHg 48%
11:00 +17°C° 0 mm 2 mps 696 mmHg 44%
12:00 +18°C° 0 mm 2 mps 695 mmHg 40%
13:00 +20°C° 0 mm 2 mps 695 mmHg 37%
14:00 +21°C° 0 mm 3 mps 694 mmHg 34%
15:00 +20°C° 0 mm 2 mps 694 mmHg 38%
16:00 +19°C° 0 mm 2 mps 693 mmHg 41%
17:00 +17°C° 0 mm 2 mps 693 mmHg 45%
18:00 +16°C° 0 mm 2 mps 693 mmHg 44%
19:00 +15°C° 0 mm 2 mps 693 mmHg 44%
20:00 +14°C° 0 mm 2 mps 694 mmHg 43%
21:00 +13°C° 0 mm 2 mps 694 mmHg 47%
22:00 +12°C° 0 mm 3 mps 695 mmHg 51%
23:00 +12°C° 0 mm 3 mps 695 mmHg 55%
Show more